Regional Weather Roundup
Issued by NWS Newport/Morehead, NC

Current Version | Previous Version | Graphics & Text | Print | Product List | Glossary Off
Versions: 1 2 3 4 5 6 7 8 9 10 11 12 13 14 15 16 17 18 19 20 21 22 23 24 25 26 27 28 29 30 31 32 33 34 35 36 37 38 39 40 41 42 43 44 45 46 47 48 49 50

000
ASUS42 KMHX 221614
RWRMHX
WEATHER ROUNDUP FOR EASTERN NORTH CAROLINA
NATIONAL WEATHER SERVICE NEWPORT/MOREHEAD CITY NC
1200 PM EDT TUE MAY 22 2018

NOTE: "FAIR" INDICATES FEW OR NO CLOUDS BELOW 12,000 FEET
WITH NO SIGNIFICANT WEATHER AND/OR OBSTRUCTIONS TO VISIBILITY

NCZ015>017-031-032-045>047-102-103-221700-
NORTH COAST

CITY           SKY/WX    TMP DP  RH WIND       PRES   REMARKS
EDENTON        PTSUNNY   81  73  76 SW7       30.14S
ELIZABETH CITY PTSUNNY   80  72  76 W8        30.12F
KITTY HAWK     FAIR      78  70  77 SW7       30.12S
MANTEO         CLOUDY    78  71  79 W10       30.13F

$$

NCZ045>047-081-094-103-104-221700-
CENTRAL COAST

CITY           SKY/WX    TMP DP  RH WIND       PRES   REMARKS
FRISCO         FAIR      77  72  84 SW10      30.16S

$$

NCZ095-097-098-100-101-221700-
SOUTHERN COAST

CITY           SKY/WX    TMP DP  RH WIND       PRES   REMARKS
BEAUFORT       PTSUNNY   78  72  81 SW12      30.17S
CEDAR ISLAND   NOT AVBL
JACKSONVILLE   PTSUNNY   81  71  71 W10       30.15F
PINEY ISLAND   NOT AVBL
WILMINGTON     PTSUNNY   79  68  69 S12       30.16F


$$

NCZ011>013-027>030-043-044-078>080-089-090>093-098-221700-
COASTAL PLAIN

CITY           SKY/WX    TMP DP  RH WIND       PRES   REMARKS
AHOSKIE        CLOUDY    76  73  88 CALM      30.13F
CLINTON        FAIR      82  69  65 SW8       30.16S
ELIZABETHTOWN  FAIR      82  67  59 S10       30.16F
GOLDSBORO      FAIR      82  69  64 S7        30.13S
GREENVILLE     FAIR      81  72  74 W5        30.15S
HAVELOCK       NOT AVBL
KENANSVILLE    CLOUDY    82  72  69 S6        30.16F
KINSTON        FAIR      81  70  69 SW7       30.15F
NEW BERN       FAIR      80  70  71 SW9       30.16F
RICHLANDS      FAIR      80  70  71 SW8       30.17S
ROCKY MOUNT    FAIR      81  70  69 VRB7      30.13F
WASHINGTON     FAIR      80  72  77 SW7       30.14F
WHITEVILLE     FAIR      82  65  57 S7        30.16S

$$

AMZ130-135-150-152-154-156-158-170-250-252-270-ANZ085-086-088-633-658-670-221700-
MARINE OBSERVATIONS

STATION/POSITION TIME  TEMP    WIND        PRES    WAVE   SWELL
                       AIR SEA DIR/SP/G            HT/PER HT/PER
                 (UTC) (F)     (DEG/KT/KT) (MB)    (FT/S) (FT/S)
CHESAPEAKE LIGHT NOT AVBL
64 E VA BEACH    1550   68 67  220/  8/  8 1020.4    3/ 8   3/ 8
DUCK             1536   75 68  250/  7/  9 1019.9
2 E DUCK         1600      69                N/A     2/ 8
OREGON INLET     1536   76 75  230/  8/  9 1020.4
13E OREGON INLT  1548      69                N/A     3/ 8   3/ 8
HATTERAS CG      1548   76 74  220/  8/ 13 1020.9
DIAMOND BUOY     1600   75 74  240/ 10/ 14 1021.8
CAPE LOOKOUT     1600          220/ 11/ 14 1022.0
BEAUFORT LAB     1536   77 77  210/  8/ 11 1021.9
30 SE NEW RVR IN 1508   76     210/  6/  8 1022.2
30 SE NEW RVR IN 1600      76                N/A     4/ 9
27 SE WRIGHTSVLE 1508   75 74  210/  6/  8 1022.1
5 SE WRIGHTSVLE  NOT AVBL
225 S CAPE HAT   1600      77  170/ 10/ 12 1022.9
41 SE CHARLESTON 1550      76  160/  6/  8 1021.6    4/ 9   3/ 9

$$




USA.gov is the U.S. government's official web portal to all federal, state and local government web resources and services.